Weather History for KTTF - June, 2013

Change the Weather History Date:

Tuesday, June 18, 2013

  Actual Average Record
Temperature  
Mean Temperature 66 °F -  
Max Temperature 73 °F 81 °F 96 °F (1990)
Min Temperature 60 °F 60 °F 41 °F (1999)
Cooling Degree Days 2    
Growing Degree Days 16 (Base 50)    
Moisture  
Dew Point 57 °F    
Average Humidity 72    
Maximum Humidity 100    
Minimum Humidity 47    
Precipitation  
Precipitation 0.00 in - - ()
Sea Level Pressure  
Sea Level Pressure 29.96 in    
Wind  
Wind Speed 6 mph (NE)    
Max Wind Speed 12 mph    
Max Gust Speed 20 mph    
Visibility 10 miles    
Events Rain    
Averages and records for this station are not official NWS values.
T = Trace of Precipitation, MM = Missing Value Source: NWS Daily Summary

Daily Weather History Graph

Daily Weather History Graph

Search for Another Location

Airport or City:

Trip Planner

Search our weather history database for the weather conditions in past years. The results will help you decide how hot, cold, wet, or windy it might be!

Date:

Astronomy

Jun. 18, 2013 Rise Set
Actual Time 5:58 AM EDT 9:11 PM EDT
Civil Twilight 5:23 AM EDT 9:46 PM EDT
Nautical Twilight 4:39 AM EDT 10:30 PM EDT
Astronomical Twilight 3:45 AM EDT 11:24 PM EDT
Moon 3:51 PM EDT (6/18) 2:10 AM EDT (6/18)
Length of Visible Light 16h 22m
Length of Day
15h 13m
Waxing Gibbous, 70% of the Moon is Illuminated
Jun 18
Waxing Gibbous
Jun 23
Full
Jun 30
Last Quarter
Jul 8
New
Jul 15
First Quarter

Hourly Weather History & Observations

Time (EDT) Temp. Dew Point Humidity Pressure Visibility Wind Dir Wind Speed Gust Speed Precip Events Conditions
12:16 AM 66.2 °F 60.8 °F 83% 29.90 in 10.0 mi North 3.5 mph - N/A   Scattered Clouds
12:36 AM 66.2 °F 60.8 °F 83% 29.90 in 7.0 mi NE 8.1 mph - N/A Rain Rain
12:56 AM 64.4 °F 62.6 °F 94% 29.90 in 10.0 mi NNE 8.1 mph - N/A   Scattered Clouds
1:16 AM 64.4 °F 60.8 °F 88% 29.88 in 10.0 mi East 4.6 mph - N/A   Mostly Cloudy
1:31 AM 64.4 °F 60.8 °F 88% 29.89 in 10.0 mi ENE 3.5 mph - N/A   Scattered Clouds
1:51 AM 64.4 °F 60.8 °F 88% 29.90 in 10.0 mi NNE 6.9 mph - N/A   Clear
2:11 AM 64.4 °F 60.8 °F 88% 29.89 in 10.0 mi NE 3.5 mph - N/A   Clear
2:34 AM 64.4 °F 60.8 °F 88% 29.89 in 10.0 mi NNE 4.6 mph - N/A   Clear
2:54 AM 64.4 °F 60.8 °F 88% 29.89 in 10.0 mi NNE 4.6 mph - N/A   Clear
3:14 AM 64.4 °F 60.8 °F 88% 29.89 in 10.0 mi Calm Calm - N/A   Clear
3:34 AM 64.4 °F 62.6 °F 94% 29.89 in 10.0 mi Calm Calm - N/A   Scattered Clouds
3:54 AM 62.6 °F 60.8 °F 94% 29.89 in 7.0 mi NE 3.5 mph - N/A   Clear
4:12 AM 64.4 °F 60.8 °F 88% 29.90 in 10.0 mi NNE 3.5 mph - N/A   Clear
4:32 AM 62.6 °F 60.8 °F 94% 29.90 in 10.0 mi NNE 4.6 mph - N/A   Scattered Clouds
4:52 AM 62.6 °F 60.8 °F 94% 29.89 in 10.0 mi NE 4.6 mph - N/A Rain Light Rain
5:12 AM 62.6 °F 60.8 °F 94% 29.89 in 7.0 mi NNE 3.5 mph - N/A Rain Light Rain
5:32 AM 62.6 °F 60.8 °F 94% 29.89 in 7.0 mi NNE 8.1 mph - N/A Rain Light Rain
5:52 AM 62.6 °F 60.8 °F 94% 29.90 in 5.0 mi NNE 4.6 mph - N/A   Mostly Cloudy
6:12 AM 60.8 °F 60.8 °F 100% 29.91 in 7.0 mi North 6.9 mph - N/A   Scattered Clouds
6:32 AM 60.8 °F 59.0 °F 94% 29.91 in 7.0 mi North 8.1 mph - N/A   Clear
6:53 AM 60.8 °F 57.2 °F 88% 29.93 in 10.0 mi NNE 3.5 mph - N/A   Clear
7:13 AM 60.8 °F 57.2 °F 88% 29.94 in 10.0 mi North 6.9 mph - N/A   Scattered Clouds
7:33 AM 60.8 °F 57.2 °F 88% 29.95 in 10.0 mi NE 5.8 mph - N/A   Clear
7:53 AM 62.6 °F 57.2 °F 82% 29.95 in 10.0 mi North 8.1 mph - N/A   Clear
8:13 AM 62.6 °F 57.2 °F 82% 29.96 in 10.0 mi NNE 6.9 mph - N/A   Clear
8:33 AM 62.6 °F 57.2 °F 82% 29.96 in 10.0 mi North 8.1 mph - N/A   Clear
8:53 AM 64.4 °F 57.2 °F 77% 29.96 in 10.0 mi NE 6.9 mph - N/A   Clear
9:13 AM 64.4 °F 57.2 °F 77% 29.97 in 10.0 mi NNE 8.1 mph - N/A   Clear
9:33 AM 66.2 °F 57.2 °F 73% 29.97 in 10.0 mi NNE 9.2 mph - N/A   Clear
9:54 AM 66.2 °F 57.2 °F 73% 29.97 in 10.0 mi North 10.4 mph 16.1 mph N/A   Clear
10:14 AM 68.0 °F 59.0 °F 73% 29.97 in 10.0 mi NE 9.2 mph - N/A   Clear
10:34 AM 68.0 °F 57.2 °F 68% 29.98 in 10.0 mi NNE 8.1 mph - N/A   Clear
10:54 AM 69.8 °F 57.2 °F 64% 29.98 in 10.0 mi NNE 8.1 mph 16.1 mph N/A   Clear
11:14 AM 71.6 °F 59.0 °F 64% 29.97 in 10.0 mi North 10.4 mph - N/A   Clear
11:34 AM 71.6 °F 57.2 °F 60% 29.97 in 10.0 mi NNE 6.9 mph - N/A   Clear
11:54 AM 71.6 °F 59.0 °F 64% 29.98 in 10.0 mi NE 10.4 mph 19.6 mph N/A   Clear
12:14 PM 73.4 °F 59.0 °F 61% 29.98 in 10.0 mi ENE 9.2 mph - N/A   Scattered Clouds
12:34 PM 73.4 °F 57.2 °F 57% 29.97 in 10.0 mi North 8.1 mph - N/A   Scattered Clouds
12:55 PM 71.6 °F 57.2 °F 60% 29.97 in 10.0 mi NNE 9.2 mph - N/A   Scattered Clouds
1:15 PM 73.4 °F 57.2 °F 57% 29.97 in 10.0 mi NE 6.9 mph - N/A   Mostly Cloudy
1:35 PM 71.6 °F 57.2 °F 60% 29.98 in 10.0 mi NE 9.2 mph - N/A   Overcast
1:55 PM 71.6 °F 57.2 °F 60% 29.98 in 10.0 mi NNE 6.9 mph - N/A   Overcast
2:15 PM 71.6 °F 57.2 °F 60% 29.98 in 10.0 mi NE 5.8 mph - N/A   Overcast
2:35 PM 71.6 °F 57.2 °F 60% 29.98 in 10.0 mi NE 8.1 mph - N/A   Overcast
2:55 PM 69.8 °F 57.2 °F 64% 29.98 in 10.0 mi ENE 6.9 mph - N/A   Overcast
3:15 PM 71.6 °F 57.2 °F 60% 29.98 in 10.0 mi ENE 6.9 mph - N/A   Overcast
3:35 PM 71.6 °F 57.2 °F 60% 29.99 in 10.0 mi ENE 5.8 mph - N/A   Overcast
3:56 PM 71.6 °F 57.2 °F 60% 29.99 in 10.0 mi NNE 6.9 mph - N/A   Overcast
4:16 PM 71.6 °F 57.2 °F 60% 29.98 in 10.0 mi NE 8.1 mph - N/A   Overcast
4:36 PM 71.6 °F 57.2 °F 60% 29.98 in 10.0 mi NNE 5.8 mph - N/A   Overcast
4:56 PM 71.6 °F 57.2 °F 60% 29.98 in 10.0 mi NNE 5.8 mph - N/A   Mostly Cloudy
5:16 PM 71.6 °F 55.4 °F 57% 29.98 in 10.0 mi NE 10.4 mph - N/A   Mostly Cloudy
5:36 PM 73.4 °F 55.4 °F 53% 29.98 in 10.0 mi ENE 9.2 mph - N/A   Mostly Cloudy
5:56 PM 71.6 °F 53.6 °F 53% 29.98 in 10.0 mi NE 9.2 mph - N/A   Scattered Clouds
6:11 PM 73.4 °F 53.6 °F 50% 29.98 in 10.0 mi NE 5.8 mph - N/A   Clear
6:31 PM 73.4 °F 51.8 °F 47% 29.98 in 10.0 mi NNE 5.8 mph - N/A   Scattered Clouds
6:51 PM 71.6 °F 53.6 °F 53% 29.99 in 10.0 mi NE 6.9 mph - N/A   Scattered Clouds
7:12 PM 71.6 °F 53.6 °F 53% 29.99 in 10.0 mi ENE 9.2 mph - N/A   Scattered Clouds
7:32 PM 69.8 °F 55.4 °F 60% 30.00 in 10.0 mi ENE 6.9 mph - N/A   Clear
7:52 PM 69.8 °F 53.6 °F 56% 30.00 in 10.0 mi ENE 11.5 mph - N/A   Clear
8:12 PM 69.8 °F 53.6 °F 56% 30.00 in 10.0 mi ENE 8.1 mph - N/A   Clear
8:32 PM 66.2 °F 53.6 °F 64% 30.01 in 10.0 mi East 9.2 mph - N/A   Clear
8:52 PM 66.2 °F 53.6 °F 64% 30.02 in 10.0 mi ENE 8.1 mph - N/A   Clear
9:12 PM 64.4 °F 53.6 °F 68% 30.02 in 10.0 mi ENE 6.9 mph - N/A   Clear
9:32 PM 64.4 °F 53.6 °F 68% 30.03 in 5.0 mi NE 3.5 mph - N/A   Haze
9:52 PM 62.6 °F 53.6 °F 72% 30.03 in 10.0 mi Calm Calm - N/A   Clear
10:13 PM 62.6 °F 53.6 °F 72% 30.04 in 10.0 mi NE 3.5 mph - N/A   Clear
10:33 PM 62.6 °F 51.8 °F 68% 30.05 in 10.0 mi NE 3.5 mph - N/A   Clear
10:53 PM 62.6 °F 46.4 °F 55% 30.06 in 10.0 mi NE 5.8 mph - N/A   Clear
11:13 PM 60.8 °F 46.4 °F 59% 30.06 in 10.0 mi NE 5.8 mph - N/A   Clear
11:33 PM 60.8 °F 44.6 °F 55% 30.06 in 10.0 mi NNE 3.5 mph - N/A   Clear
11:53 PM 60.8 °F 44.6 °F 55% 30.06 in 10.0 mi NNE 4.6 mph - N/A   Clear